• In Portugal
  • List of Countries
  • For 7 days
  • Water Temperature
  • Satellite Maps
  • Weather Map
  • Weather Widgets
  • user-avatar
    Login

    Hourly Weather Shaki

    Today, 23 June, Saturday

    Time Temperature Precipitation Wind Pressure Humidity
    00:00 +24°C° 0 mm 3 mps 732 mmHg 49%
    01:00 +24°C° 0 mm 2 mps 732 mmHg 50%
    02:00 +24°C° 0 mm 2 mps 732 mmHg 51%
    03:00 +23°C° 0 mm 2 mps 732 mmHg 52%
    04:00 +24°C° 0 mm 1 mps 732 mmHg 50%
    05:00 +25°C° 0 mm 1 mps 732 mmHg 49%
    06:00 +26°C° 0 mm 1 mps 732 mmHg 47%
    07:00 +27°C° 0 mm 1 mps 732 mmHg 43%
    08:00 +28°C° 0 mm 1 mps 732 mmHg 40%
    09:00 +30°C° 0 mm 1 mps 732 mmHg 36%
    10:00 +31°C° 0.1 mm 1 mps 731 mmHg 34%
    11:00 +32°C° 0.1 mm 2 mps 731 mmHg 33%
    12:00 +34°C° 0.1 mm 2 mps 731 mmHg 32%
    13:00 +34°C° 0.2 mm 2 mps 731 mmHg 31%
    14:00 +34°C° 0.2 mm 3 mps 731 mmHg 30%
    15:00 +34°C° 0 mm 3 mps 730 mmHg 31%
    16:00 +34°C° 0 mm 2 mps 731 mmHg 32%
    17:00 +32°C° 0 mm 2 mps 731 mmHg 34%
    18:00 +32°C° 0 mm 2 mps 731 mmHg 35%
    19:00 +30°C° 0 mm 2 mps 731 mmHg 37%
    20:00 +28°C° 0 mm 2 mps 731 mmHg 40%
    21:00 +26°C° 0 mm 2 mps 732 mmHg 43%
    22:00 +26°C° 0 mm 2 mps 732 mmHg 43%
    23:00 +25°C° 0 mm 2 mps 732 mmHg 42%

    Tomorrow, 24 June, Sunday

    Time Temperature Precipitation Wind Pressure Humidity
    00:00 +25°C° 0 mm 2 mps 732 mmHg 42%
    01:00 +24°C° 0 mm 2 mps 732 mmHg 43%
    02:00 +24°C° 0 mm 2 mps 732 mmHg 43%
    03:00 +24°C° 0 mm 2 mps 732 mmHg 44%
    04:00 +25°C° 0 mm 2 mps 732 mmHg 43%
    05:00 +25°C° 0 mm 2 mps 732 mmHg 43%
    06:00 +26°C° 0 mm 2 mps 732 mmHg 43%
    07:00 +28°C° 0 mm 3 mps 732 mmHg 38%
    08:00 +30°C° 0 mm 3 mps 732 mmHg 34%
    09:00 +33°C° 0 mm 3 mps 732 mmHg 30%
    10:00 +34°C° 0 mm 3 mps 732 mmHg 29%
    11:00 +35°C° 0 mm 3 mps 732 mmHg 28%
    12:00 +36°C° 0 mm 3 mps 732 mmHg 26%
    13:00 +36°C° 0 mm 2 mps 732 mmHg 26%
    14:00 +36°C° 0 mm 2 mps 732 mmHg 25%
    15:00 +37°C° 0 mm 2 mps 732 mmHg 25%
    16:00 +36°C° 0 mm 2 mps 732 mmHg 26%
    17:00 +36°C° 0 mm 2 mps 732 mmHg 28%
    18:00 +35°C° 0 mm 2 mps 732 mmHg 29%
    19:00 +32°C° 0 mm 2 mps 733 mmHg 30%
    20:00 +30°C° 0 mm 2 mps 733 mmHg 32%
    21:00 +28°C° 0 mm 2 mps 734 mmHg 34%
    22:00 +28°C° 0 mm 2 mps 734 mmHg 35%
    23:00 +27°C° 0 mm 2 mps 734 mmHg 35%

    Day after tomorrow, 25 June, Monday

    Time Temperature Precipitation Wind Pressure Humidity
    00:00 +27°C° 0 mm 2 mps 734 mmHg 36%
    01:00 +26°C° 0 mm 2 mps 734 mmHg 37%
    02:00 +26°C° 0 mm 2 mps 734 mmHg 38%
    03:00 +26°C° 0 mm 2 mps 734 mmHg 39%
    04:00 +26°C° 0 mm 1 mps 734 mmHg 38%
    05:00 +27°C° 0 mm 1 mps 735 mmHg 38%
    06:00 +28°C° 0 mm 1 mps 735 mmHg 38%
    07:00 +30°C° 0 mm 1 mps 735 mmHg 35%
    08:00 +31°C° 0 mm 1 mps 735 mmHg 32%
    09:00 +32°C° 0 mm 2 mps 735 mmHg 29%
    10:00 +34°C° 0 mm 2 mps 735 mmHg 28%
    11:00 +36°C° 0 mm 3 mps 734 mmHg 26%
    12:00 +37°C° 0 mm 3 mps 734 mmHg 24%
    13:00 +37°C° 0 mm 3 mps 734 mmHg 24%
    14:00 +38°C° 0 mm 4 mps 734 mmHg 23%
    15:00 +38°C° 0 mm 4 mps 733 mmHg 23%
    16:00 +37°C° 0 mm 4 mps 733 mmHg 25%
    17:00 +37°C° 0 mm 4 mps 733 mmHg 27%
    18:00 +36°C° 0 mm 4 mps 733 mmHg 28%
    19:00 +34°C° 0 mm 3 mps 734 mmHg 30%
    20:00 +31°C° 0 mm 3 mps 734 mmHg 32%
    21:00 +29°C° 0 mm 3 mps 734 mmHg 34%
    22:00 +28°C° 0 mm 3 mps 734 mmHg 35%
    23:00 +28°C° 0 mm 3 mps 734 mmHg 36%

    26 June, Tuesday

    Time Temperature Precipitation Wind Pressure Humidity
    00:00 +27°C° 0 mm 2 mps 734 mmHg 36%
    01:00 +27°C° 0 mm 2 mps 734 mmHg 37%
    02:00 +26°C° 0 mm 2 mps 734 mmHg 37%
    03:00 +26°C° 0 mm 2 mps 734 mmHg 38%
    04:00 +27°C° 0 mm 2 mps 734 mmHg 37%
    05:00 +28°C° 0 mm 1 mps 734 mmHg 36%
    06:00 +29°C° 0 mm 1 mps 734 mmHg 36%
    07:00 +30°C° 0 mm 1 mps 734 mmHg 32%
    08:00 +32°C° 0 mm 1 mps 734 mmHg 28%
    09:00 +33°C° 0 mm 1 mps 734 mmHg 25%
    10:00 +35°C° 0 mm 2 mps 733 mmHg 23%
    11:00 +36°C° 0 mm 2 mps 733 mmHg 22%
    12:00 +37°C° 0 mm 2 mps 733 mmHg 21%
    13:00 +38°C° 0 mm 3 mps 732 mmHg 21%
    14:00 +38°C° 0 mm 3 mps 732 mmHg 21%
    15:00 +39°C° 0 mm 3 mps 732 mmHg 21%
    16:00 +38°C° 0 mm 3 mps 732 mmHg 23%
    17:00 +38°C° 0 mm 3 mps 732 mmHg 25%
    18:00 +37°C° 0 mm 3 mps 732 mmHg 27%
    19:00 +35°C° 0 mm 3 mps 732 mmHg 29%
    20:00 +33°C° 0 mm 3 mps 733 mmHg 31%
    21:00 +30°C° 0 mm 3 mps 733 mmHg 33%
    22:00 +29°C° 0 mm 3 mps 733 mmHg 34%
    23:00 +28°C° 0 mm 2 mps 733 mmHg 34%

    27 June, Wednesday

    Time Temperature Precipitation Wind Pressure Humidity
    00:00 +28°C° 0 mm 2 mps 733 mmHg 34%
    01:00 +27°C° 0 mm 2 mps 732 mmHg 34%
    02:00 +27°C° 0 mm 2 mps 732 mmHg 33%
    03:00 +27°C° 0 mm 2 mps 732 mmHg 32%
    04:00 +28°C° 0 mm 2 mps 732 mmHg 32%
    05:00 +28°C° 0 mm 2 mps 732 mmHg 31%
    06:00 +29°C° 0 mm 2 mps 733 mmHg 31%
    07:00 +31°C° 0 mm 2 mps 733 mmHg 28%
    08:00 +34°C° 0 mm 2 mps 732 mmHg 24%
    09:00 +35°C° 0 mm 2 mps 732 mmHg 21%
    10:00 +36°C° 0 mm 2 mps 732 mmHg 21%
    11:00 +37°C° 0 mm 2 mps 732 mmHg 21%
    12:00 +38°C° 0 mm 3 mps 732 mmHg 20%
    13:00 +39°C° 0 mm 3 mps 731 mmHg 20%
    14:00 +39°C° 0 mm 3 mps 731 mmHg 21%
    15:00 +40°C° 0 mm 3 mps 731 mmHg 21%
    16:00 +39°C° 0 mm 3 mps 731 mmHg 23%
    17:00 +39°C° 0 mm 3 mps 731 mmHg 24%
    18:00 +38°C° 0 mm 3 mps 731 mmHg 26%
    19:00 +36°C° 0 mm 3 mps 731 mmHg 29%
    20:00 +34°C° 0 mm 3 mps 732 mmHg 32%
    21:00 +31°C° 0 mm 3 mps 732 mmHg 34%
    22:00 +30°C° 0 mm 3 mps 732 mmHg 35%
    23:00 +29°C° 0 mm 2 mps 733 mmHg 35%

    28 June, Thursday

    Time Temperature Precipitation Wind Pressure Humidity
    00:00 +29°C° 0 mm 2 mps 733 mmHg 36%
    01:00 +28°C° 0 mm 2 mps 733 mmHg 36%
    02:00 +28°C° 0 mm 2 mps 733 mmHg 36%
    03:00 +27°C° 0 mm 2 mps 733 mmHg 35%
    04:00 +28°C° 0 mm 2 mps 733 mmHg 35%
    05:00 +29°C° 0 mm 2 mps 733 mmHg 34%
    06:00 +30°C° 0 mm 1 mps 734 mmHg 34%
    07:00 +32°C° 0 mm 2 mps 734 mmHg 30%
    08:00 +34°C° 0 mm 2 mps 734 mmHg 26%
    09:00 +36°C° 0 mm 2 mps 734 mmHg 22%
    10:00 +37°C° 0 mm 2 mps 734 mmHg 21%
    11:00 +38°C° 0 mm 3 mps 734 mmHg 20%
    12:00 +40°C° 0 mm 4 mps 734 mmHg 19%
    13:00 +41°C° 0 mm 4 mps 733 mmHg 19%
    14:00 +41°C° 0 mm 4 mps 733 mmHg 19%
    15:00 +42°C° 0 mm 5 mps 733 mmHg 18%
    16:00 +41°C° 0 mm 5 mps 733 mmHg 20%
    17:00 +40°C° 0 mm 5 mps 733 mmHg 22%
    18:00 +38°C° 0 mm 4 mps 733 mmHg 24%
    19:00 +36°C° 0 mm 4 mps 733 mmHg 26%
    20:00 +34°C° 0 mm 4 mps 734 mmHg 28%
    21:00 +31°C° 0 mm 3 mps 734 mmHg 31%
    22:00 +30°C° 0 mm 3 mps 734 mmHg 31%
    23:00 +29°C° 0 mm 3 mps 734 mmHg 32%
    Show more